Regional Weather Roundup
Issued by NWS

Home | Current Version | Previous Version | Text Only | Print | Product List | Glossary On
Versions: 1 2 3 4 5 6 7 8 9 10 11 12 13 14 15 16 17 18 19 20 21 22 23 24 25 26 27 28 29 30 31 32 33 34 35 36 37 38 39 40 41 42 43 44 45 46 47 48 49 50
000
ASUS44 KOUN 210000
RWROK

WEATHER ROUNDUP FOR OKLAHOMA
NATIONAL WEATHER SERVICE NORMAN OK
700 PM CDT SAT SEP 20 2014

NOTE: "FAIR" INDICATES FEW OR NO CLOUDS BELOW 12,000 FEET WITH NO
      SIGNIFICANT WEATHER AND/OR OBSTRUCTIONS TO VISIBILITY.

OKZ001>007-009>012-014-015-017-210100-
NORTHWEST OKLAHOMA AND THE PANHANDLE

CITY           SKY/WX    TMP DP  RH WIND       PRES   REMARKS
GAGE           CLEAR     86  63  45 SE6       29.99S
6HR MIN TEMP:  82; 6HR MAX TEMP:  91;

$$

OKZ016-021>023-033>039-044-045-210100-
SOUTHWEST OKLAHOMA

CITY           SKY/WX    TMP DP  RH WIND       PRES   REMARKS
LAWTON/REGL    CLOUDY    86  66  51 SE8       29.95S
6HR MIN TEMP:  85; 6HR MAX TEMP:  90;

FREDERICK      PTCLDY    87  66  49 SE8       29.93S
CLINTON        CLEAR     86  63  45 S8        30.00R
HOBART         CLEAR     86  63  45 S8        29.97F
ALTUS AFB      PTCLDY    86  68  55 S7        29.96S
$$

OKZ018>020-024>031-210100-
CENTRAL OKLAHOMA

CITY           SKY/WX    TMP DP  RH WIND       PRES   REMARKS
OKLAHOMA CITY  PTCLDY    84  67  56 SE7       29.97R
6HR MIN TEMP:  84; 6HR MAX TEMP:  89;

OKC/WILEY POST CLEAR     85  66  53 S8        29.97R
STILLWATER     CLEAR     84  67  56 S6        29.96R
GUTHRIE        CLEAR     85  67  54 SE6       29.96R
$$

OKZ008-013-054>072-210100-
NORTHEAST OKLAHOMA

CITY           SKY/WX    TMP DP  RH WIND       PRES   REMARKS
TULSA          PTCLDY    85  67  54 S8        29.96S
6HR MIN TEMP:  84; 6HR MAX TEMP:  89;

TULSA/JONES    CLEAR     85  66  53 S6        29.96R
PONCA CITY     CLEAR     86  65  49 S7        29.95R
BARTLESVILLE   CLEAR     81  70  69 CALM      29.97S
MUSKOGEE       CLEAR     81  69  67 S3        29.98R
$$

OKZ032-040>043-046>053-073>077-210100-
SOUTH CENTRAL/SOUTHEAST OKLAHOMA

CITY           SKY/WX    TMP DP  RH WIND       PRES   REMARKS
MCALESTER      CLEAR     84  67  56 SE3       29.98R
$$



USA.gov is the U.S. government's official web portal to all federal, state and local government web resources and services.